Regional Weather Roundup
Issued by NWS Newport/Morehead, NC

Current Version | Previous Version | Graphics & Text | Print | Product List | Glossary Off
Versions: 1 2 3 4 5 6 7 8 9 10 11 12 13 14 15 16 17 18 19 20 21 22 23 24 25 26 27 28 29 30 31 32 33 34 35 36 37 38 39 40 41 42 43 44 45 46 47 48 49 50

000
ASUS42 KMHX 231222
RWRMHX
WEATHER ROUNDUP FOR EASTERN NORTH CAROLINA
NATIONAL WEATHER SERVICE NEWPORT/MOREHEAD CITY NC
800 AM EDT SAT AUG 23 2014

NOTE: "FAIR" INDICATES FEW OR NO CLOUDS BELOW 12,000 FEET
WITH NO SIGNIFICANT WEATHER AND/OR OBSTRUCTIONS TO VISIBILITY

NCZ015>017-031-032-045>047-102-103-231300-
NORTH COAST

CITY           SKY/WX    TMP DP  RH WIND       PRES   REMARKS
EDENTON        MOSUNNY   74  72  95 N3        29.96R
ELIZABETH CITY SUNNY     76  72  87 N5        29.96R
KITTY HAWK     MOSUNNY   77  70  79 CALM      29.95R
MANTEO         SUNNY     79  72  78 NE7       29.95R

$$

NCZ045>047-081-094-103-104-231300-
CENTRAL COAST

CITY           SKY/WX    TMP DP  RH WIND       PRES   REMARKS
FRISCO         MOSUNNY   77  72  84 NE6       29.94R
SWANQUARTER      N/A     77 N/A N/A NW1       29.91S

$$

NCZ095-097-098-100-101-231300-
SOUTHERN COAST

CITY           SKY/WX    TMP DP  RH WIND       PRES   REMARKS
BEAUFORT       PTSUNNY   78  74  87 NE7       29.94R
CEDAR ISLAND     N/A     82 N/A N/A NE2       29.97S
JACKSONVILLE   PTSUNNY   78  74  87 E6        29.94R
NEWPORT        NOT AVBL
PINEY ISLAND   LGT RAIN  78  76  93 CALM      29.94R FOG
WILMINGTON     CLOUDY    76  73  91 E3        29.92R


$$

NCZ011>013-027>030-043-044-078>080-089-090>093-098-231300-
COASTAL PLAIN

CITY           SKY/WX    TMP DP  RH WIND       PRES   REMARKS
AHOSKIE        PTSUNNY   71  70  96 CALM      29.97S
CLINTON        MOSUNNY   75  73  94 E3        29.94S
ELIZABETHTOWN  CLOUDY    75  74  96 CALM      29.93S
GOLDSBORO      PTSUNNY   75  74  98 E7        29.93R
GREENVILLE       N/A     73  73 100 CALM      29.97R FOG
HAVELOCK       PTSUNNY   78  75  90 E6        29.95R
KENANSVILLE    PTSUNNY   74  72  92 CALM      29.95R
KINSTON        PTSUNNY   75  73  94 NE5       29.95S
NEW BERN       PTSUNNY   78  74  87 E3        29.96R
RICHLANDS      CLOUDY    75  72  88 E5        29.94S
ROANOKE RAPIDS NOT AVBL
ROCKY MOUNT    PTSUNNY   74  72  93 E3        29.95S FOG
WASHINGTON     PTSUNNY   74  73  93 CALM      29.95S
WHITEVILLE     CLOUDY    75  74  95 E3        29.92R FOG

$$

AMZ130-135-150-152-154-156-158-170-250-252-270-ANZ085-086-088-633-658-670-231300-
MARINE OBSERVATIONS

STATION/POSITION TIME  TEMP    WIND        PRES    WAVE   SWELL
                       AIR SEA DIR/SP/G            HT/PER HT/PER
                 (UTC) (F)     (DEG/KT/KT) (MB)    (FT/S) (FT/S)
CHESAPEAKE LIGHT 1100   75      60/ 14/ 15 1014.7
BUOY 44014       1200   77 78   50/ 14/ 17 1013.5    3/ 7   2/ 7
DUCK             1200   77 80   50/ 10/ 12 1013.6
2E DUCK          1200                        N/A     2/ 7
OREGON INLET     1200   78 81   30/  8/ 10 1014.0
BUOY 44095       1200      80                N/A     2/ 7
20E OREGON INLET NOT AVBL
HATTERAS CG      1200   80 82   30/  6/  9 1014.2
DIAMOND BUOY     1200   79     350/  8/ 10 1013.2    2/ 7   2/ 7
CAPE LOOKOUT     1200   80      30/  9/ 11 1013.8
BEAUFORT LAB     1200   78 83   40/  7/  9 1013.5
30 SE NEW RIVER  1200   81 82   90/  6/  6 1012.8    1/ 4
5 SE WRIGHTSVILL 1200   79 83   90/ 10/ 12   N/A
BUOY 41002       1052   82 82  280/ 12/ 14 1015.0    3/ 4   2/ 7
BUOY 41004       1200   85 84  230/ 12/ 12 1012.1    2/ 4   2/ 8

$$


USA.gov is the U.S. government's official web portal to all federal, state and local government web resources and services.